Time,TemperatureF,DewpointF,PressureIn,WindDirection,WindDirectionDegrees,WindSpeedMPH,WindSpeedGustMPH,Humidity,HourlyPrecipIn,Conditions,Clouds,dailyrainin,SoftwareType,DateUTC
2013-01-15 00:04:00,27.0,22.0,30.36,North,11,0.0,-999.0,82,-99.99,,,-99.99,,2013-01-15 05:04:00,
2013-01-15 00:12:00,27.0,22.0,30.36,North,11,0.0,-999.0,82,-99.99,,,-99.99,,2013-01-15 05:12:00,
2013-01-15 00:22:00,27.0,22.0,30.36,North,11,0.0,-999.0,82,-99.99,,,-99.99,,2013-01-15 05:22:00,
2013-01-15 00:33:00,27.0,22.0,30.36,North,11,0.0,-999.0,82,-99.99,,,-99.99,,2013-01-15 05:33:00,
2013-01-15 00:42:00,27.0,22.0,30.36,North,11,0.0,-999.0,82,-99.99,,,-99.99,,2013-01-15 05:42:00,
2013-01-15 00:52:00,27.0,22.0,30.36,North,11,0.0,-999.0,81,-99.99,,,-99.99,,2013-01-15 05:52:00,
2013-01-15 01:03:00,27.0,22.0,30.36,North,11,0.0,-999.0,81,-99.99,,,-99.99,,2013-01-15 06:03:00,
2013-01-15 01:12:00,27.0,22.0,30.36,North,11,0.0,-999.0,81,-99.99,,,-99.99,,2013-01-15 06:12:00,
2013-01-15 01:22:00,27.0,22.0,30.36,North,11,0.0,-999.0,81,-99.99,,,-99.99,,2013-01-15 06:22:00,
2013-01-15 01:33:00,27.0,22.0,30.36,North,349,0.0,-999.0,80,-99.99,,,-99.99,,2013-01-15 06:33:00,
2013-01-15 01:43:00,27.0,22.0,30.36,North,349,0.0,-999.0,80,-99.99,,,-99.99,,2013-01-15 06:43:00,
2013-01-15 01:52:00,27.0,21.0,30.37,North,349,0.0,-999.0,79,-99.99,,,-99.99,,2013-01-15 06:52:00,
2013-01-15 02:02:00,27.0,22.0,30.36,NE,39,0.0,-999.0,80,-99.99,,,-99.99,,2013-01-15 07:02:00,
2013-01-15 02:12:00,27.0,22.0,30.36,NE,39,0.0,-999.0,80,-99.99,,,-99.99,,2013-01-15 07:12:00,
2013-01-15 02:22:00,27.0,21.0,30.37,NNE,19,1.0,-999.0,79,-99.99,,,-99.99,,2013-01-15 07:22:00,
2013-01-15 02:33:00,27.0,21.0,30.37,NNW,346,0.0,-999.0,79,-99.99,,,-99.99,,2013-01-15 07:33:00,
2013-01-15 02:42:00,27.0,21.0,30.37,NNW,346,0.0,-999.0,79,-99.99,,,-99.99,,2013-01-15 07:42:00,
2013-01-15 02:52:00,27.0,22.0,30.37,NNW,346,0.0,-999.0,81,-99.99,,,-99.99,,2013-01-15 07:52:00,
2013-01-15 03:02:00,27.0,22.0,30.37,NNW,346,0.0,-999.0,81,-99.99,,,-99.99,,2013-01-15 08:02:00,
2013-01-15 03:12:00,27.0,22.0,30.37,NNW,346,0.0,-999.0,81,-99.99,,,-99.99,,2013-01-15 08:12:00,
2013-01-15 03:22:00,27.0,21.0,30.37,NNW,346,0.0,-999.0,79,-99.99,,,-99.99,,2013-01-15 08:22:00,
2013-01-15 03:33:00,27.0,21.0,30.37,NNW,346,0.0,-999.0,79,-99.99,,,-99.99,,2013-01-15 08:33:00,
2013-01-15 03:43:00,27.0,21.0,30.37,NNW,346,0.0,-999.0,79,-99.99,,,-99.99,,2013-01-15 08:43:00,
2013-01-15 03:52:00,27.0,22.0,30.37,NNW,346,0.0,-999.0,80,-99.99,,,-99.99,,2013-01-15 08:52:00,
2013-01-15 04:02:00,27.0,21.0,30.37,North,355,0.0,-999.0,79,-99.99,,,-99.99,,2013-01-15 09:02:00,
2013-01-15 04:12:00,27.0,21.0,30.37,North,355,0.0,-999.0,79,-99.99,,,-99.99,,2013-01-15 09:12:00,
2013-01-15 04:22:00,27.0,22.0,30.36,North,355,0.0,-999.0,82,-99.99,,,-99.99,,2013-01-15 09:22:00,
2013-01-15 04:33:00,27.0,22.0,30.36,North,355,0.0,-999.0,81,-99.99,,,-99.99,,2013-01-15 09:33:00,
2013-01-15 04:42:00,27.0,22.0,30.36,North,355,0.0,-999.0,81,-99.99,,,-99.99,,2013-01-15 09:42:00,
2013-01-15 04:52:00,28.0,24.0,30.36,North,355,0.0,-999.0,85,-99.99,,,-99.99,,2013-01-15 09:52:00,
2013-01-15 05:02:00,29.0,25.0,30.36,North,355,0.0,-999.0,84,-99.99,,,-99.99,,2013-01-15 10:02:00,
2013-01-15 05:12:00,29.0,25.0,30.36,North,355,0.0,-999.0,84,-99.99,,,-99.99,,2013-01-15 10:12:00,
2013-01-15 05:22:00,28.0,23.0,30.36,North,355,0.0,-999.0,82,-99.99,,,-99.99,,2013-01-15 10:22:00,
2013-01-15 05:32:00,28.0,24.0,30.36,NE,46,0.0,-999.0,83,-99.99,,,-99.99,,2013-01-15 10:32:00,
2013-01-15 05:42:00,28.0,24.0,30.36,NE,46,0.0,-999.0,83,-99.99,,,-99.99,,2013-01-15 10:42:00,
2013-01-15 05:52:00,28.0,23.0,30.36,NNE,20,0.0,-999.0,82,-99.99,,,-99.99,,2013-01-15 10:52:00,
2013-01-15 06:03:00,28.0,23.0,30.36,NNE,19,0.0,-999.0,82,-99.99,,,-99.99,,2013-01-15 11:03:00,
2013-01-15 06:12:00,28.0,23.0,30.36,NNE,19,0.0,-999.0,82,-99.99,,,-99.99,,2013-01-15 11:12:00,
2013-01-15 06:22:00,28.0,23.0,30.37,NNE,19,1.0,-999.0,82,-99.99,,,-99.99,,2013-01-15 11:22:00,
2013-01-15 06:33:00,28.0,23.0,30.37,North,10,2.0,-999.0,81,-99.99,,,-99.99,,2013-01-15 11:33:00,
2013-01-15 06:43:00,28.0,23.0,30.37,North,10,2.0,-999.0,81,-99.99,,,-99.99,,2013-01-15 11:43:00,
2013-01-15 06:52:00,28.0,23.0,30.37,ENE,61,1.0,-999.0,82,-99.99,,,-99.99,,2013-01-15 11:52:00,
2013-01-15 07:03:00,28.0,23.0,30.38,NNE,13,1.0,-999.0,82,-99.99,,,-99.99,,2013-01-15 12:03:00,
2013-01-15 07:12:00,28.0,23.0,30.38,NNE,13,1.0,-999.0,82,-99.99,,,-99.99,,2013-01-15 12:12:00,
2013-01-15 07:22:00,27.0,22.0,30.39,NNE,26,0.0,-999.0,82,-99.99,,,-99.99,,2013-01-15 12:22:00,
2013-01-15 07:33:00,27.0,22.0,30.39,NE,46,1.0,-999.0,82,-99.99,,,-99.99,,2013-01-15 12:33:00,
2013-01-15 07:43:00,27.0,22.0,30.39,NE,46,1.0,-999.0,82,-99.99,,,-99.99,,2013-01-15 12:43:00,
2013-01-15 07:53:00,27.0,22.0,30.40,North,5,0.0,-999.0,82,-99.99,,,-99.99,,2013-01-15 12:53:00,
2013-01-15 08:03:00,27.0,22.0,30.40,NW,323,0.0,-999.0,81,-99.99,,,-99.99,,2013-01-15 13:03:00,
2013-01-15 08:12:00,27.0,22.0,30.40,NW,323,0.0,-999.0,81,-99.99,,,-99.99,,2013-01-15 13:12:00,
2013-01-15 08:23:00,27.0,22.0,30.41,North,355,1.0,-999.0,81,-99.99,,,-99.99,,2013-01-15 13:23:00,
2013-01-15 08:33:00,27.0,22.0,30.41,NW,313,1.0,-999.0,80,-99.99,,,-99.99,,2013-01-15 13:33:00,
2013-01-15 08:43:00,27.0,22.0,30.41,NW,313,1.0,-999.0,80,-99.99,,,-99.99,,2013-01-15 13:43:00,
2013-01-15 08:53:00,27.0,21.0,30.42,NNW,348,2.0,-999.0,79,-99.99,,,-99.99,,2013-01-15 13:53:00,
2013-01-15 09:03:00,27.0,22.0,30.41,NNE,27,1.0,-999.0,80,-99.99,,,-99.99,,2013-01-15 14:03:00,
2013-01-15 09:12:00,27.0,22.0,30.41,NNE,27,1.0,-999.0,80,-99.99,,,-99.99,,2013-01-15 14:12:00,
2013-01-15 09:23:00,27.0,22.0,30.40,NNE,15,0.0,-999.0,80,-99.99,,,-99.99,,2013-01-15 14:23:00,
2013-01-15 09:33:00,27.0,21.0,30.41,North,355,0.0,-999.0,79,-99.99,,,-99.99,,2013-01-15 14:33:00,
2013-01-15 09:43:00,27.0,21.0,30.41,North,355,0.0,-999.0,79,-99.99,,,-99.99,,2013-01-15 14:43:00,
2013-01-15 09:53:00,27.0,21.0,30.41,NNE,15,0.0,-999.0,78,-99.99,,,-99.99,,2013-01-15 14:53:00,
2013-01-15 10:03:00,27.0,21.0,30.42,NNW,348,1.0,-999.0,78,-99.99,,,-99.99,,2013-01-15 15:03:00,
2013-01-15 10:12:00,27.0,21.0,30.42,NNW,348,1.0,-999.0,78,-99.99,,,-99.99,,2013-01-15 15:12:00,
2013-01-15 10:23:00,27.0,20.0,30.42,North,351,0.0,-999.0,76,-99.99,,,-99.99,,2013-01-15 15:23:00,
2013-01-15 10:33:00,27.0,21.0,30.42,North,355,0.0,-999.0,77,-99.99,,,-99.99,,2013-01-15 15:33:00,
2013-01-15 10:43:00,27.0,21.0,30.42,North,355,0.0,-999.0,77,-99.99,,,-99.99,,2013-01-15 15:43:00,
2013-01-15 10:53:00,28.0,22.0,30.42,East,92,0.0,-999.0,77,-99.99,,,-99.99,,2013-01-15 15:53:00,
2013-01-15 11:03:00,28.0,21.0,30.41,East,94,1.0,-999.0,75,-99.99,,,-99.99,,2013-01-15 16:03:00,
2013-01-15 11:12:00,28.0,21.0,30.41,East,94,1.0,-999.0,75,-99.99,,,-99.99,,2013-01-15 16:12:00,
2013-01-15 11:23:00,28.0,21.0,30.40,NNE,19,1.0,-999.0,74,-99.99,,,-99.99,,2013-01-15 16:23:00,
2013-01-15 11:33:00,28.0,21.0,30.39,NNE,23,0.0,-999.0,74,-99.99,,,-99.99,,2013-01-15 16:33:00,
2013-01-15 11:43:00,28.0,21.0,30.39,NNE,23,0.0,-999.0,74,-99.99,,,-99.99,,2013-01-15 16:43:00,
2013-01-15 11:53:00,28.0,21.0,30.38,ENE,67,1.0,-999.0,74,-99.99,,,-99.99,,2013-01-15 16:53:00,
2013-01-15 12:04:00,29.0,21.0,30.37,ENE,74,1.0,-999.0,73,-99.99,,,-99.99,,2013-01-15 17:04:00,
2013-01-15 12:12:00,29.0,21.0,30.37,ENE,74,1.0,-999.0,73,-99.99,,,-99.99,,2013-01-15 17:12:00,
2013-01-15 12:23:00,29.0,21.0,30.37,East,99,0.0,-999.0,71,-99.99,,,-99.99,,2013-01-15 17:23:00,
2013-01-15 12:33:00,29.0,21.0,30.37,NE,36,0.0,-999.0,72,-99.99,,,-99.99,,2013-01-15 17:33:00,
2013-01-15 12:43:00,29.0,21.0,30.37,NE,36,0.0,-999.0,72,-99.99,,,-99.99,,2013-01-15 17:43:00,
2013-01-15 12:53:00,30.0,21.0,30.37,NNE,13,1.0,-999.0,70,-99.99,,,-99.99,,2013-01-15 17:53:00,
2013-01-15 13:03:00,30.0,21.0,30.36,NNE,13,0.0,-999.0,70,-99.99,,,-99.99,,2013-01-15 18:03:00,
2013-01-15 13:13:00,30.0,21.0,30.36,NNE,13,0.0,-999.0,70,-99.99,,,-99.99,,2013-01-15 18:13:00,
2013-01-15 13:23:00,31.0,22.0,30.35,NE,50,1.0,-999.0,68,-99.99,,,-99.99,,2013-01-15 18:23:00,
2013-01-15 13:33:00,31.0,21.0,30.35,NNE,20,1.0,-999.0,66,-99.99,,,-99.99,,2013-01-15 18:33:00,
2013-01-15 13:43:00,31.0,21.0,30.35,NNE,20,1.0,-999.0,66,-99.99,,,-99.99,,2013-01-15 18:43:00,
2013-01-15 13:53:00,32.0,22.0,30.33,East,85,1.0,-999.0,66,-99.99,,,-99.99,,2013-01-15 18:53:00,
2013-01-15 14:03:00,32.0,22.0,30.30,ESE,105,2.0,-999.0,65,-99.99,,,-99.99,,2013-01-15 19:03:00,
2013-01-15 14:13:00,32.0,22.0,30.30,ESE,105,2.0,-999.0,65,-99.99,,,-99.99,,2013-01-15 19:13:00,
2013-01-15 14:23:00,32.0,22.0,30.30,East,90,1.0,-999.0,65,-99.99,,,-99.99,,2013-01-15 19:23:00,
2013-01-15 14:33:00,32.0,22.0,30.32,East,88,1.0,-999.0,65,-99.99,,,-99.99,,2013-01-15 19:33:00,
2013-01-15 14:42:00,32.0,22.0,30.32,East,88,1.0,-999.0,65,-99.99,,,-99.99,,2013-01-15 19:42:00,
2013-01-15 14:53:00,33.0,27.0,30.32,WNW,291,0.0,-999.0,77,-99.99,,,-99.99,,2013-01-15 19:53:00,
2013-01-15 15:03:00,33.0,25.0,30.32,East,100,1.0,-999.0,71,-99.99,,,-99.99,,2013-01-15 20:03:00,
2013-01-15 15:12:00,33.0,25.0,30.32,East,100,1.0,-999.0,71,-99.99,,,-99.99,,2013-01-15 20:12:00,
2013-01-15 15:23:00,32.0,23.0,30.32,NNE,17,2.0,-999.0,70,-99.99,,,-99.99,,2013-01-15 20:23:00,
2013-01-15 15:33:00,31.0,24.0,30.30,NNE,26,2.0,-999.0,74,-99.99,,,-99.99,,2013-01-15 20:33:00,
2013-01-15 15:43:00,31.0,24.0,30.30,NNE,26,2.0,-999.0,74,-99.99,,,-99.99,,2013-01-15 20:43:00,
2013-01-15 15:53:00,30.0,23.0,30.29,NW,319,2.0,-999.0,74,-99.99,,,-99.99,,2013-01-15 20:53:00,
2013-01-15 16:03:00,30.0,23.0,30.29,NNW,342,2.0,-999.0,75,-99.99,,,-99.99,,2013-01-15 21:03:00,
2013-01-15 16:13:00,30.0,23.0,30.29,NNW,342,2.0,-999.0,75,-99.99,,,-99.99,,2013-01-15 21:13:00,
2013-01-15 16:23:00,30.0,23.0,30.29,North,11,1.0,-999.0,75,-99.99,,,-99.99,,2013-01-15 21:23:00,
2013-01-15 16:34:00,30.0,23.0,30.28,NNE,24,1.0,-999.0,75,-99.99,,,-99.99,,2013-01-15 21:34:00,
2013-01-15 16:43:00,30.0,23.0,30.28,NNE,24,1.0,-999.0,75,-99.99,,,-99.99,,2013-01-15 21:43:00,
2013-01-15 16:53:00,30.0,24.0,30.30,North,360,0.0,-999.0,77,-99.99,,,-99.99,,2013-01-15 21:53:00,
2013-01-15 17:03:00,30.0,23.0,30.29,North,360,0.0,-999.0,75,-99.99,,,-99.99,,2013-01-15 22:03:00,
2013-01-15 17:12:00,30.0,23.0,30.29,North,360,0.0,-999.0,75,-99.99,,,-99.99,,2013-01-15 22:12:00,
2013-01-15 17:23:00,30.0,24.0,30.29,North,360,0.0,-999.0,77,-99.99,,,-99.99,,2013-01-15 22:23:00,
2013-01-15 17:33:00,30.0,23.0,30.30,NNW,328,1.0,-999.0,76,-99.99,,,-99.99,,2013-01-15 22:33:00,
2013-01-15 17:43:00,30.0,23.0,30.30,NNW,328,1.0,-999.0,76,-99.99,,,-99.99,,2013-01-15 22:43:00,
2013-01-15 17:52:00,30.0,23.0,30.29,NNW,348,0.0,-999.0,76,-99.99,,,-99.99,,2013-01-15 22:52:00,
2013-01-15 18:03:00,30.0,24.0,30.30,NNW,348,0.0,-999.0,77,-99.99,,,-99.99,,2013-01-15 23:03:00,
2013-01-15 18:13:00,30.0,24.0,30.30,NNW,348,0.0,-999.0,77,-99.99,,,-99.99,,2013-01-15 23:13:00,
2013-01-15 18:23:00,30.0,24.0,30.29,NNW,348,0.0,-999.0,77,-99.99,,,-99.99,,2013-01-15 23:23:00,
2013-01-15 18:33:00,30.0,24.0,30.28,NNW,348,0.0,-999.0,77,-99.99,,,-99.99,,2013-01-15 23:33:00,
2013-01-15 18:43:00,30.0,24.0,30.28,NNW,348,0.0,-999.0,77,-99.99,,,-99.99,,2013-01-15 23:43:00,
2013-01-15 18:53:00,30.0,24.0,30.26,North,355,0.0,-999.0,77,-99.99,,,-99.99,,2013-01-15 23:53:00,
2013-01-15 19:03:00,29.0,23.0,30.26,East,85,0.0,-999.0,78,-99.99,,,-99.99,,2013-01-16 00:03:00,
2013-01-15 19:13:00,29.0,23.0,30.26,East,85,0.0,-999.0,78,-99.99,,,-99.99,,2013-01-16 00:13:00,
2013-01-15 19:22:00,30.0,24.0,30.26,East,80,0.0,-999.0,78,-99.99,,,-99.99,,2013-01-16 00:22:00,
2013-01-15 19:33:00,30.0,24.0,30.26,East,80,0.0,-999.0,78,-99.99,,,-99.99,,2013-01-16 00:33:00,
2013-01-15 19:43:00,30.0,24.0,30.26,East,80,0.0,-999.0,78,-99.99,,,-99.99,,2013-01-16 00:43:00,
2013-01-15 19:52:00,30.0,24.0,30.26,East,80,0.0,-999.0,78,-99.99,,,-99.99,,2013-01-16 00:52:00,
2013-01-15 20:03:00,30.0,25.0,30.24,East,80,0.0,-999.0,80,-99.99,,,-99.99,,2013-01-16 01:03:00,
2013-01-15 20:12:00,30.0,25.0,30.24,East,80,0.0,-999.0,80,-99.99,,,-99.99,,2013-01-16 01:12:00,
2013-01-15 20:22:00,30.0,26.0,30.24,East,81,0.0,-999.0,84,-99.99,,,-99.99,,2013-01-16 01:22:00,
2013-01-15 20:33:00,30.0,24.0,30.24,East,81,0.0,-999.0,79,-99.99,,,-99.99,,2013-01-16 01:33:00,
2013-01-15 20:43:00,30.0,24.0,30.24,East,81,0.0,-999.0,79,-99.99,,,-99.99,,2013-01-16 01:43:00,
2013-01-15 20:52:00,30.0,24.0,30.24,East,81,0.0,-999.0,79,-99.99,,,-99.99,,2013-01-16 01:52:00,
2013-01-15 21:03:00,30.0,25.0,30.22,East,81,0.0,-999.0,80,-99.99,,,-99.99,,2013-01-16 02:03:00,
2013-01-15 21:12:00,30.0,25.0,30.22,East,81,0.0,-999.0,80,-99.99,,,-99.99,,2013-01-16 02:12:00,
2013-01-15 21:23:00,30.0,25.0,30.21,East,81,0.0,-999.0,80,-99.99,,,-99.99,,2013-01-16 02:23:00,
2013-01-15 21:33:00,30.0,25.0,30.21,East,81,0.0,-999.0,80,-99.99,,,-99.99,,2013-01-16 02:33:00,
2013-01-15 21:43:00,30.0,25.0,30.21,East,81,0.0,-999.0,80,-99.99,,,-99.99,,2013-01-16 02:43:00,
2013-01-15 21:52:00,30.0,25.0,30.20,East,81,0.0,-999.0,80,-99.99,,,-99.99,,2013-01-16 02:52:00,
2013-01-15 22:03:00,30.0,25.0,30.20,East,81,0.0,-999.0,81,-99.99,,,-99.99,,2013-01-16 03:03:00,
2013-01-15 22:12:00,30.0,25.0,30.20,East,81,0.0,-999.0,81,-99.99,,,-99.99,,2013-01-16 03:12:00,
2013-01-15 22:22:00,30.0,26.0,30.20,East,81,0.0,-999.0,84,-99.99,,,-99.99,,2013-01-16 03:22:00,
2013-01-15 22:33:00,30.0,25.0,30.18,East,81,0.0,-999.0,82,-99.99,,,-99.99,,2013-01-16 03:33:00,
2013-01-15 22:43:00,30.0,25.0,30.18,East,81,0.0,-999.0,82,-99.99,,,-99.99,,2013-01-16 03:43:00,
2013-01-15 22:52:00,30.0,24.0,30.17,East,81,0.0,-999.0,79,-99.99,,,-99.99,,2013-01-16 03:52:00,
2013-01-15 23:02:00,30.0,25.0,30.16,East,98,0.0,-999.0,80,-99.99,,,-99.99,,2013-01-16 04:02:00,
2013-01-15 23:12:00,30.0,25.0,30.16,East,98,0.0,-999.0,80,-99.99,,,-99.99,,2013-01-16 04:12:00,
2013-01-15 23:22:00,30.0,25.0,30.16,East,98,0.0,-999.0,80,-99.99,,,-99.99,,2013-01-16 04:22:00,
2013-01-15 23:33:00,30.0,24.0,30.14,SE,125,0.0,-999.0,78,-99.99,,,-99.99,,2013-01-16 04:33:00,
2013-01-15 23:42:00,30.0,24.0,30.14,SE,125,0.0,-999.0,78,-99.99,,,-99.99,,2013-01-16 04:42:00,
2013-01-15 23:53:00,30.0,24.0,30.13,SE,140,0.0,-999.0,78,-99.99,,,-99.99,,2013-01-16 04:53:00,